When you browse on this site, cookies collect data to enhance your experience and personalize the content and advertising you see.
Visit our Privacy Policy to learn more. By continuing to use the site, you agree to this use of cookies and data.
  • In Deutschland
  • Länderverzeichnis
  • Für 7 Tage
  • Wassertemperatur
  • Satellitenkarten
  • Wetterkarte
  • Widgets
  • user-avatar
    Anmelden

    Stündliche Wetter Fuqing

    Heute, 19 Dezember, Mittwoch

    Zeit Temperatur Niederschläge Wind Luftdruck Luftfeuchtigkeit
    00:00 +12°C° 0 mm 3 m/S 757 mmHg 67%
    01:00 +12°C° 0 mm 3 m/S 757 mmHg 68%
    02:00 +12°C° 0 mm 3 m/S 757 mmHg 68%
    03:00 +12°C° 0 mm 3 m/S 757 mmHg 68%
    04:00 +11°C° 0 mm 3 m/S 757 mmHg 68%
    05:00 +11°C° 0 mm 3 m/S 757 mmHg 69%
    06:00 +12°C° 0 mm 3 m/S 757 mmHg 68%
    07:00 +12°C° 0 mm 3 m/S 757 mmHg 67%
    08:00 +13°C° 0 mm 3 m/S 757 mmHg 63%
    09:00 +16°C° 0 mm 3 m/S 757 mmHg 60%
    10:00 +18°C° 0 mm 3 m/S 757 mmHg 57%
    11:00 +20°C° 0 mm 3 m/S 756 mmHg 54%
    12:00 +21°C° 0 mm 3 m/S 756 mmHg 53%
    13:00 +21°C° 0 mm 3 m/S 755 mmHg 52%
    14:00 +23°C° 0 mm 2 m/S 754 mmHg 50%
    15:00 +20°C° 0 mm 2 m/S 754 mmHg 56%
    16:00 +19°C° 0 mm 2 m/S 754 mmHg 61%
    17:00 +18°C° 0 mm 2 m/S 754 mmHg 67%
    18:00 +18°C° 0 mm 2 m/S 754 mmHg 70%
    19:00 +18°C° 0 mm 1 m/S 754 mmHg 74%
    20:00 +16°C° 0 mm 1 m/S 754 mmHg 78%
    21:00 +16°C° 0 mm 1 m/S 754 mmHg 79%
    22:00 +16°C° 0 mm 1 m/S 755 mmHg 79%
    23:00 +15°C° 0 mm 1 m/S 755 mmHg 80%

    Morgen, 20 Dezember, Donnerstag

    Zeit Temperatur Niederschläge Wind Luftdruck Luftfeuchtigkeit
    00:00 +15°C° 0 mm 1 m/S 754 mmHg 79%
    01:00 +15°C° 0 mm 1 m/S 754 mmHg 78%
    02:00 +15°C° 0 mm 1 m/S 754 mmHg 77%
    03:00 +15°C° 0 mm 2 m/S 754 mmHg 76%
    04:00 +15°C° 0 mm 2 m/S 753 mmHg 75%
    05:00 +15°C° 0 mm 2 m/S 753 mmHg 73%
    06:00 +16°C° 0 mm 2 m/S 753 mmHg 71%
    07:00 +16°C° 0 mm 2 m/S 754 mmHg 69%
    08:00 +17°C° 0 mm 2 m/S 754 mmHg 67%
    09:00 +18°C° 0 mm 2 m/S 754 mmHg 65%
    10:00 +21°C° 0 mm 1 m/S 754 mmHg 62%
    11:00 +22°C° 0 mm 1 m/S 754 mmHg 59%
    12:00 +23°C° 0 mm 1 m/S 753 mmHg 59%
    13:00 +23°C° 0 mm 1 m/S 753 mmHg 60%
    14:00 +23°C° 0 mm 1 m/S 752 mmHg 61%
    15:00 +23°C° 0 mm 1 m/S 752 mmHg 65%
    16:00 +22°C° 0 mm 1 m/S 752 mmHg 69%
    17:00 +21°C° 0 mm 1 m/S 752 mmHg 72%
    18:00 +21°C° 0 mm 1 m/S 752 mmHg 75%
    19:00 +19°C° 0 mm 2 m/S 753 mmHg 77%
    20:00 +19°C° 0 mm 2 m/S 753 mmHg 79%
    21:00 +19°C° 0 mm 2 m/S 753 mmHg 80%
    22:00 +18°C° 0 mm 2 m/S 753 mmHg 81%
    23:00 +18°C° 0 mm 2 m/S 753 mmHg 82%

    übermorgen, 21 Dezember, Freitag

    Zeit Temperatur Niederschläge Wind Luftdruck Luftfeuchtigkeit
    00:00 +18°C° 0 mm 2 m/S 753 mmHg 83%
    01:00 +18°C° 0 mm 2 m/S 753 mmHg 85%
    02:00 +18°C° 0 mm 3 m/S 753 mmHg 86%
    03:00 +18°C° 0 mm 3 m/S 753 mmHg 87%
    04:00 +18°C° 0 mm 3 m/S 753 mmHg 87%
    05:00 +18°C° 0 mm 3 m/S 753 mmHg 88%
    06:00 +18°C° 0 mm 3 m/S 753 mmHg 88%
    07:00 +18°C° 0 mm 3 m/S 754 mmHg 88%
    08:00 +18°C° 0 mm 3 m/S 754 mmHg 87%
    09:00 +19°C° 0 mm 3 m/S 754 mmHg 83%
    10:00 +21°C° 0 mm 3 m/S 754 mmHg 78%
    11:00 +22°C° 0 mm 3 m/S 754 mmHg 73%
    12:00 +22°C° 0 mm 3 m/S 753 mmHg 73%
    13:00 +24°C° 0 mm 3 m/S 753 mmHg 72%
    14:00 +23°C° 0 mm 4 m/S 752 mmHg 71%
    15:00 +22°C° 0 mm 4 m/S 752 mmHg 75%
    16:00 +22°C° 0 mm 4 m/S 752 mmHg 80%
    17:00 +21°C° 0 mm 4 m/S 753 mmHg 84%
    18:00 +20°C° 0 mm 4 m/S 753 mmHg 86%
    19:00 +20°C° 0 mm 5 m/S 753 mmHg 88%
    20:00 +19°C° 0 mm 5 m/S 754 mmHg 90%
    21:00 +19°C° 0 mm 5 m/S 754 mmHg 91%
    22:00 +19°C° 0 mm 4 m/S 754 mmHg 91%
    23:00 +19°C° 0 mm 4 m/S 754 mmHg 91%

    22 Dezember, Samstag

    Zeit Temperatur Niederschläge Wind Luftdruck Luftfeuchtigkeit
    00:00 +19°C° 0 mm 4 m/S 754 mmHg 91%
    01:00 +19°C° 0 mm 4 m/S 754 mmHg 91%
    02:00 +19°C° 0 mm 4 m/S 754 mmHg 91%
    03:00 +19°C° 0 mm 4 m/S 754 mmHg 91%
    04:00 +19°C° 0 mm 4 m/S 754 mmHg 91%
    05:00 +18°C° 0 mm 4 m/S 754 mmHg 92%
    06:00 +19°C° 0 mm 4 m/S 754 mmHg 91%
    07:00 +19°C° 0 mm 4 m/S 754 mmHg 90%
    08:00 +19°C° 0 mm 4 m/S 755 mmHg 89%
    09:00 +20°C° 0 mm 4 m/S 755 mmHg 84%
    10:00 +22°C° 0 mm 4 m/S 755 mmHg 79%
    11:00 +23°C° 0 mm 4 m/S 755 mmHg 75%
    12:00 +23°C° 0 mm 4 m/S 754 mmHg 73%
    13:00 +25°C° 0 mm 4 m/S 753 mmHg 72%
    14:00 +25°C° 0 mm 4 m/S 753 mmHg 70%
    15:00 +23°C° 0 mm 4 m/S 753 mmHg 75%
    16:00 +22°C° 0 mm 4 m/S 753 mmHg 79%
    17:00 +21°C° 0 mm 4 m/S 753 mmHg 84%
    18:00 +21°C° 0 mm 4 m/S 753 mmHg 87%
    19:00 +20°C° 0 mm 4 m/S 754 mmHg 90%
    20:00 +19°C° 0 mm 4 m/S 755 mmHg 93%
    21:00 +19°C° 0 mm 4 m/S 755 mmHg 93%
    22:00 +19°C° 0 mm 4 m/S 755 mmHg 93%
    23:00 +19°C° 0 mm 4 m/S 755 mmHg 94%

    23 Dezember, Sonntag

    Zeit Temperatur Niederschläge Wind Luftdruck Luftfeuchtigkeit
    00:00 +19°C° 0 mm 4 m/S 755 mmHg 93%
    01:00 +19°C° 0 mm 4 m/S 755 mmHg 93%
    02:00 +19°C° 0 mm 4 m/S 754 mmHg 92%
    03:00 +19°C° 0 mm 4 m/S 754 mmHg 92%
    04:00 +19°C° 0 mm 4 m/S 754 mmHg 91%
    05:00 +19°C° 0 mm 4 m/S 754 mmHg 91%
    06:00 +19°C° 0 mm 4 m/S 755 mmHg 90%
    07:00 +20°C° 0 mm 4 m/S 755 mmHg 88%
    08:00 +20°C° 0 mm 4 m/S 755 mmHg 87%
    09:00 +21°C° 0 mm 4 m/S 755 mmHg 81%
    10:00 +22°C° 0 mm 4 m/S 755 mmHg 76%
    11:00 +25°C° 0 mm 5 m/S 755 mmHg 70%
    12:00 +23°C° 0.1 mm 5 m/S 755 mmHg 72%
    13:00 +23°C° 0.1 mm 6 m/S 754 mmHg 74%
    14:00 +23°C° 0.1 mm 7 m/S 754 mmHg 76%
    15:00 +21°C° 0.1 mm 7 m/S 754 mmHg 79%
    16:00 +20°C° 0.1 mm 7 m/S 754 mmHg 81%
    17:00 +18°C° 0.1 mm 7 m/S 755 mmHg 84%
    18:00 +18°C° 0.2 mm 8 m/S 755 mmHg 84%
    19:00 +18°C° 0.2 mm 8 m/S 756 mmHg 84%
    20:00 +17°C° 0.2 mm 8 m/S 757 mmHg 84%
    21:00 +17°C° 0.2 mm 8 m/S 757 mmHg 84%
    22:00 +17°C° 0.2 mm 8 m/S 757 mmHg 84%
    23:00 +16°C° 0.2 mm 9 m/S 757 mmHg 83%

    24 Dezember, Montag

    Zeit Temperatur Niederschläge Wind Luftdruck Luftfeuchtigkeit
    00:00 +16°C° 0.1 mm 8 m/S 756 mmHg 84%
    01:00 +16°C° 0.1 mm 8 m/S 756 mmHg 84%
    02:00 +15°C° 0.1 mm 8 m/S 756 mmHg 84%
    03:00 +15°C° 0.2 mm 8 m/S 755 mmHg 84%
    04:00 +15°C° 0.2 mm 8 m/S 755 mmHg 83%
    05:00 +15°C° 0.2 mm 8 m/S 755 mmHg 83%
    06:00 +15°C° 0.1 mm 8 m/S 756 mmHg 83%
    07:00 +15°C° 0.1 mm 8 m/S 756 mmHg 82%
    08:00 +15°C° 0.1 mm 7 m/S 756 mmHg 82%
    09:00 +15°C° 0.1 mm 7 m/S 756 mmHg 82%
    10:00 +15°C° 0.1 mm 7 m/S 756 mmHg 81%
    11:00 +15°C° 0.1 mm 7 m/S 756 mmHg 81%
    12:00 +15°C° 0.1 mm 7 m/S 755 mmHg 80%
    13:00 +15°C° 0.1 mm 7 m/S 755 mmHg 79%
    14:00 +16°C° 0.1 mm 7 m/S 754 mmHg 79%
    15:00 +16°C° 0 mm 7 m/S 754 mmHg 79%
    16:00 +15°C° 0 mm 7 m/S 754 mmHg 80%
    17:00 +15°C° 0 mm 6 m/S 754 mmHg 81%
    18:00 +15°C° 0 mm 6 m/S 754 mmHg 82%
    19:00 +15°C° 0 mm 6 m/S 754 mmHg 83%
    20:00 +15°C° 0 mm 6 m/S 755 mmHg 84%
    21:00 +15°C° 0 mm 6 m/S 754 mmHg 84%
    22:00 +15°C° 0 mm 6 m/S 754 mmHg 85%
    23:00 +15°C° 0 mm 6 m/S 754 mmHg 85%
    Mehr zeigen